RH
46 45 43 38 38 44 53 32 52 21 25 22 32 39 49 57 60 59 52 49 48 45 43 45 46 43 34 24 14 9 10 11 10 9 10 12 16 19 21 23 25 26 29 32
71 55 46 46 43 41 39 30 29 34 30 33 32 42 55 60 63 56 50 47 44 42 43 41 33 24 14 10 11 10 11 10 11 15 16 17 18 19 21 23 27 39 54 55
46 56 55 63 48 45 39 31 32 39 23 44 51 50 55 61 63 55 49 44 41 40 35 26 16 11 9 9 10 11 12 15 16 15 16 18 21 24 30 45 56 56 56 65
72 56 57 33 47 39 38 36 39 39 39 39 41 48 58 62 62 53 45 41 38 30 18 10 9 8 8 10 12 14 15 14 14 17 21 26 32 44 52 60 61 64 66 69
65 51 37 40 47 51 46 39 40 39 50 56 58 56 57 62 56 46 41 34 23 12 9 10 10 10 11 13 13 13 15 17 21 26 33 40 51 60 61 65 68 70 72 73
67 57 42 29 46 47 35 31 46 47 52 52 51 50 50 47 42 36 23 13 12 13 13 12 12 12 12 12 15 20 23 24 28 38 50 58 62 64 68 76 77 78 77 78
51 53 42 41 43 43 37 32 55 52 52 52 45 41 44 38 30 20 16 16 15 13 13 13 13 14 16 19 22 26 31 38 47 55 61 65 68 76 79 84 84 84 84 86
64 65 52 46 46 38 46 60 56 55 53 48 44 44 36 28 20 19 18 17 15 14 14 16 18 20 21 24 32 39 46 52 61 69 72 72 77 83 93 93 92 91 93 92
53 52 48 46 46 49 52 49 46 47 46 44 40 34 30 23 22 21 19 16 15 16 17 20 22 25 30 36 45 50 58 65 69 72 78 88 97 98 100 99 98 97 94 95
57 48 44 46 50 50 46 41 42 40 39 36 29 26 22 22 22 19 16 18 20 20 21 24 26 27 37 47 56 60 65 64 67 78 92 98 100 100 100 100 98 96 99 100
62 56 44 46 45 39 37 31 26 22 19 17 18 22 20 20 18 20 22 23 25 28 27 26 26 30 45 56 61 63 63 73 87 96 100 100 100 100 100 100 100 100 100 99
66 49 45 43 36 27 22 22 18 19 23 23 18 20 20 20 22 24 26 26 26 27 27 29 37 47 56 61 63 62 66 84 95 100 100 100 100 100 100 98 73 69 98 100
64 67 42 37 33 24 21 20 22 21 22 25 26 22 21 21 23 24 26 27 28 28 31 43 53 58 62 62 61 62 69 89 100 100 100 100 100 100 100 88 77 70 96 100
83 52 88 70 68 58 42 30 35 28 30 28 26 22 21 21 23 25 28 30 30 37 52 59 62 62 63 64 66 69 85 86 88 100 100 100 100 100 100 100 100 100 94 100
98 93 88 62 36 34 37 28 29 32 32 30 26 23 23 25 28 31 34 40 53 58 61 62 65 64 66 68 74 86 86 98 100 97 100 100 100 100 100 100 100 100 100 100
91 72 54 40 37 34 31 33 32 37 38 32 28 28 28 30 34 41 56 63 61 60 61 68 71 70 70 80 91 88 90 100 100 100 100 100 100 100 100 100 100 100 100 100
51 47 41 38 34 35 34 37 39 37 30 29 30 30 33 42 52 62 62 60 63 67 68 73 73 72 84 97 97 92 100 96 94 91 100 100 100 100 100 100 100 100 100 100
36 33 28 28 32 36 41 40 35 32 32 33 34 42 50 56 62 65 65 67 72 69 71 74 78 88 100 98 94 100 96 94 91 93 94 93 100 96 94 92 100 100 100 100
27 30 32 34 37 40 42 39 37 36 36 40 48 52 56 60 66 70 73 72 76 73 73 79 91 95 97 94 100 97 93 91 92 92 90 96 91 95 93 96 100 100 95 100
35 36 39 43 46 44 42 40 37 40 47 50 52 57 60 64 71 74 75 74 80 79 84 89 99 94 92 92 92 92 91 91 91 92 92 93 91 94 94 95 94 96 94 95
44 49 49 48 45 41 38 41 47 50 50 53 58 63 66 69 75 80 80 80 83 88 94 92 93 93 94 92 94 92 91 91 92 91 92 93 95 96 95 94 95 97 95 98
52 49 44 40 40 43 47 50 51 50 53 60 68 72 72 78 80 80 82 85 87 92 94 92 92 98 93 95 94 92 92 93 94 94 94 89 89 91 93 93 94 95 95 97
44 44 46 48 50 51 50 50 54 58 59 62 65 74 79 80 81 83 81 91 90 95 95 94 96 94 95 95 95 94 94 96 95 90 85 87 89 91 94 97 97 96 98 96
52 54 53 51 48 45 46 47 48 54 64 76 84 84 82 81 85 90 90 91 94 100 98 97 97 96 96 95 93 93 96 96 92 87 90 92 91 93 93 94 95 96 98 95
44 40 38 39 42 48 58 68 76 82 85 86 85 85 86 86 88 92 94 94 95 96 97 97 96 96 95 95 95 96 98 95 89 91 92 92 94 94 93 93 94 96 97 96
42 49 59 68 75 82 87 90 92 92 90 87 89 90 91 93 94 94 94 94 95 96 96 91 88 89 93 96 98 98 96 92 89 91 94 93 92 92 92 95 95 98 100 95
69 80 84 88 90 91 92 100 100 92 94 94 94 96 94 95 95 95 95 95 96 92 89 93 94 96 95 96 96 95 94 95 92 93 94 94 94 93 95 99 100 99 95 94
Wind_Speed
3 3 6 6 18 23 18 18 10 11 10 12 16 16 20 24 25 25 24 22 21 20 19 18 15 12 9 8 9 11 14 17 19 21 23 25 27 29 31 32 34 36 37 36
3 3 4 4 10 22 22 17 13 2 10 3 13 19 21 25 27 26 24 22 20 19 17 15 11 9 7 8 11 13 15 17 19 22 25 27 30 32 34 35 34 33 33 34
7 4 3 5 16 21 18 19 17 14 9 13 10 18 26 27 26 26 24 22 19 17 14 11 9 7 8 10 12 14 16 18 21 25 28 30 32 33 32 31 31 32 32 31
4 5 6 1 2 10 12 14 11 5 9 12 14 13 18 19 24 24 23 20 17 14 11 8 6 7 9 11 13 16 18 22 25 28 30 30 30 29 30 29 30 31 31 29
6 6 2 2 5 9 11 10 16 11 12 15 22 22 12 15 20 23 20 17 15 11 7 5 6 8 10 12 16 19 21 24 27 28 29 29 29 29 30 30 30 30 29 29
4 6 8 2 4 5 4 5 15 16 17 23 24 9 7 20 22 21 19 15 11 7 4 4 7 10 12 15 18 20 23 26 28 29 29 28 28 29 28 27 29 29 29 28
5 3 1 3 7 6 8 2 14 20 24 26 10 2 29 26 22 19 15 11 7 4 3 5 9 11 14 17 20 23 25 27 28 27 27 26 27 26 27 26 27 28 29 27
3 4 7 6 5 6 4 8 16 20 23 18 24 34 31 26 23 16 11 7 4 2 4 6 10 13 17 20 22 24 26 27 25 24 24 25 26 26 24 25 27 27 28 29
3 2 3 4 3 6 10 21 19 27 27 32 36 30 28 24 17 12 8 4 2 2 4 8 12 15 19 20 23 25 25 24 24 25 23 22 22 23 23 23 25 28 30 35
6 3 5 7 10 13 18 24 30 33 36 39 35 27 24 18 13 9 6 3 1 4 8 11 14 18 21 23 23 24 25 25 25 23 21 20 20 21 22 24 27 31 34 35
5 6 14 11 15 25 34 38 39 35 34 31 29 22 18 14 10 8 4 1 3 7 11 15 19 21 22 23 23 25 25 23 20 19 20 21 20 21 23 23 26 32 33 33
3 14 9 14 23 34 39 34 33 32 28 22 18 17 13 11 8 5 1 3 8 12 16 19 21 23 22 22 24 26 24 20 19 20 20 21 21 24 22 27 26 23 23 25
7 11 26 29 28 31 33 30 27 23 18 18 14 11 10 8 4 1 5 9 13 17 20 21 22 23 21 23 24 23 22 20 19 20 19 21 22 26 26 26 24 21 21 22
30 42 29 29 26 28 27 24 20 18 15 12 9 7 5 2 2 5 9 13 17 19 20 20 21 21 21 22 21 20 19 19 20 18 19 20 23 21 20 21 23 24 22 22
19 23 31 32 32 28 22 21 17 13 10 8 5 3 2 2 5 8 12 15 16 18 18 19 21 20 19 18 17 17 18 18 17 19 20 20 18 16 17 18 20 20 22 22
31 34 33 32 28 24 20 14 12 10 7 5 3 1 2 6 9 11 13 15 17 18 18 20 19 18 17 15 15 16 18 15 16 18 17 15 14 15 16 17 17 18 19 20
30 23 28 27 23 17 13 10 7 6 4 3 1 4 6 8 10 12 13 14 16 17 18 18 17 15 13 13 14 16 14 19 19 16 13 13 12 15 14 15 15 17 17 19
28 28 26 22 17 12 9 6 5 3 1 3 6 7 8 10 12 13 14 16 18 16 15 15 13 11 11 13 13 12 17 15 14 12 11 11 12 12 14 14 15 16 19 19
26 24 18 14 10 7 5 4 2 2 5 7 8 9 10 12 13 14 16 16 15 15 12 10 9 9 12 12 11 12 11 10 9 8 9 9 10 11 13 14 15 16 18 19
19 14 11 8 6 4 3 2 4 7 8 9 10 11 11 12 14 15 15 14 12 12 9 7 9 11 11 11 10 8 8 7 7 7 8 9 10 11 13 14 16 17 19 19
12 9 7 5 4 3 4 6 8 8 9 10 11 12 12 13 14 14 12 12 7 7 6 7 9 9 10 9 7 5 5 5 6 6 8 9 11 12 13 15 16 16 18 19
8 6 4 3 3 5 7 8 9 10 10 11 11 12 13 13 12 11 9 9 6 5 6 7 8 7 9 6 4 4 4 4 4 7 9 11 12 12 13 14 16 17 18 18
4 3 4 5 6 7 8 9 10 10 11 12 13 12 12 12 11 9 5 5 4 3 6 7 4 8 4 3 2 3 4 4 4 7 10 10 10 12 13 14 15 16 17 19
5 6 7 8 9 10 9 10 11 12 12 11 11 12 12 9 6 5 6 4 4 4 6 4 5 4 2 2 2 2 3 4 6 8 9 9 11 12 13 14 15 16 18 19
8 9 10 10 10 11 10 10 10 10 10 11 10 9 8 7 4 4 4 4 4 5 3 5 5 3 2 1 1 1 2 5 7 7 8 11 13 14 13 14 14 14 16 20
9 10 10 10 9 9 9 10 10 10 10 8 6 6 5 5 4 3 3 3 4 2 2 2 1 1 1 2 1 1 2 5 5 6 8 12 16 16 13 14 14 14 15 18
9 8 9 9 9 10 9 8 10 9 8 8 5 4 4 4 4 3 3 3 2 2 3 3 3 2 2 2 2 1 3 4 4 6 9 14 18 14 11 13 14 16 17 15
Wind_Direction
54 129 171 193 195 189 200 208 200 219 211 188 188 177 168 162 160 158 159 160 160 159 160 165 171 183 202 233 261 278 289 296 304 308 309 309 308 308 306 304 304 303 302 301
130 147 183 192 203 200 211 210 237 195 210 106 147 151 158 165 164 164 163 161 159 161 164 170 183 201 229 258 279 291 298 307 310 311 309 308 308 307 306 306 305 303 301 301
185 151 143 269 208 191 201 206 207 206 206 155 165 171 170 167 169 166 163 160 159 163 168 182 204 231 258 277 290 300 306 308 309 309 308 309 308 308 307 306 305 304 304 303
122 158 206 328 41 196 189 208 200 130 156 169 162 150 159 168 166 162 158 156 161 168 180 201 230 258 277 292 301 304 305 307 309 308 307 308 309 307 308 307 306 304 302 301
162 207 16 182 189 167 186 212 192 160 139 128 127 115 111 158 162 156 153 153 164 174 189 223 257 279 292 299 300 303 307 308 308 308 308 310 309 309 309 306 304 302 302 302
167 192 213 124 152 174 179 237 179 158 154 148 150 159 152 152 147 145 152 158 164 179 211 259 282 291 297 301 304 308 308 308 309 309 310 310 309 309 307 304 302 302 301 299
179 201 258 133 147 158 175 182 159 157 155 158 159 102 147 144 142 147 151 155 167 189 247 276 287 297 304 306 309 308 310 311 311 311 310 310 309 307 306 305 302 301 301 303
161 203 229 149 119 194 111 111 139 144 149 136 123 128 135 141 143 145 150 156 174 226 271 291 304 308 309 309 310 312 312 312 312 311 310 310 310 311 309 307 305 306 307 308
214 119 61 52 51 124 138 134 134 133 140 135 128 130 136 139 143 146 151 164 196 274 308 311 311 310 310 313 313 314 312 312 312 312 312 313 311 308 310 310 310 312 313 312
152 55 73 84 98 115 131 127 132 134 131 135 131 136 138 141 144 147 149 154 315 320 315 312 313 315 314 316 315 313 313 314 314 314 314 314 311 312 311 311 313 315 315 312
84 113 101 77 116 127 125 129 127 127 131 132 134 135 139 140 141 136 126 60 317 312 315 319 318 317 316 317 314 314 314 313 313 313 313 314 313 311 309 308 311 310 307 312
111 168 100 127 126 129 125 125 126 126 123 123 126 127 129 130 132 134 145 311 315 319 320 319 318 316 318 315 313 314 314 315 314 314 316 314 313 314 310 311 321 322 317 313
129 118 121 125 124 128 123 126 125 118 117 124 121 123 128 130 127 6 326 319 318 318 318 317 314 314 317 313 313 313 312 313 312 313 312 313 315 315 319 323 326 334 330 324
133 128 107 126 123 129 130 130 137 131 123 118 113 113 109 98 336 319 315 313 314 314 314 314 311 315 314 312 312 312 311 312 315 316 314 313 316 316 318 320 322 327 333 334
121 130 125 131 138 132 141 137 129 120 116 111 106 99 72 326 309 305 305 307 309 311 314 311 311 315 312 312 312 312 314 316 319 313 311 313 318 320 319 320 321 325 331 340
110 118 129 135 140 137 134 129 124 119 115 111 106 74 316 303 301 303 307 311 311 311 314 310 312 315 314 314 313 315 317 318 314 316 316 321 322 322 324 324 328 331 335 339
123 126 135 132 131 128 123 119 114 113 114 109 13 313 309 308 308 307 309 309 307 312 312 309 313 315 312 315 316 321 325 314 319 322 325 328 328 330 328 336 337 339 338 346
139 138 137 131 127 121 112 104 102 102 54 331 321 318 314 310 305 306 311 314 312 317 313 311 312 313 318 317 323 319 315 322 327 334 336 342 340 345 352 358 353 350 359 359
124 123 121 117 112 110 108 106 88 338 319 316 315 311 308 305 305 309 313 314 314 315 317 314 312 317 320 325 325 323 328 335 343 349 351 3 6 10 11 14 6 3 7 5
115 113 110 105 100 89 71 4 327 319 314 312 311 308 306 305 306 309 312 310 314 309 313 317 327 325 322 327 334 339 345 355 3 8 18 18 18 15 8 6 6 4 6 8
102 98 93 87 70 21 337 323 318 313 307 305 305 305 304 306 309 308 312 308 314 309 315 324 327 325 329 336 342 351 5 12 18 32 23 13 3 358 359 358 0 3 5 8
98 93 78 40 348 328 320 313 306 304 303 305 303 302 304 306 305 306 305 302 316 318 325 328 331 322 324 337 351 10 18 22 33 19 9 359 356 359 6 11 11 12 10 11
66 26 359 345 334 322 314 307 304 305 303 301 300 299 300 304 303 306 309 298 301 316 309 323 295 309 333 2 25 23 19 19 18 9 5 9 15 18 16 14 8 7 5 5
18 0 343 333 326 318 308 302 302 303 303 299 295 295 297 300 300 289 301 304 312 299 314 285 293 303 310 4 27 33 39 27 10 7 8 13 13 6 357 355 354 355 354 354
351 341 330 323 320 315 311 308 306 304 300 298 296 291 287 288 284 280 284 294 298 303 263 254 280 267 259 264 33 45 27 10 7 15 21 16 6 356 348 346 350 357 360 2
342 335 330 327 323 318 315 312 307 310 309 308 305 290 278 274 283 281 286 294 298 261 238 255 214 202 202 217 193 30 28 13 20 27 19 8 1 356 2 11 10 6 0 1
344 338 333 330 322 317 314 308 303 311 308 308 311 278 270 260 255 255 259 279 229 212 199 172 155 142 114 85 78 40 11 14 8 2 357 358 358 3 14 14 4 358 357 4